Weather History for KSIY - August, 2014

Change the Weather History Date:

Monday, August 4, 2014

  Actual Average Record
Temperature  
Mean Temperature 78 °F 73 °F  
Max Temperature 94 °F 93 °F 104 °F (2012)
Min Temperature 61 °F 54 °F 44 °F (1996)
Degree Days  
Heating Degree Days 0 0  
Month to date heating degree days 0 0  
Since 1 June heating degree days 46 97  
Since 1 July heating degree days 0 4  
Cooling Degree Days 13 8  
Month to date cooling degree days 56 35  
Year to date cooling degree days 577 348  
Since 1 June cooling degree days 570 335  
Growing Degree Days 26 (Base 50)    
Moisture  
Dew Point 50 °F    
Average Humidity 36    
Maximum Humidity 58    
Minimum Humidity 21    
Precipitation  
Precipitation 0.00 in 0.01 in 0.32 in (1952)
Month to date precipitation 0.00 0.07  
Year to date precipitation 6.17 10.73  
Sea Level Pressure  
Sea Level Pressure 29.95 in    
Wind  
Wind Speed 5 mph (WNW)    
Max Wind Speed 30 mph    
Max Gust Speed 37 mph    
Visibility 6 miles    
Events      
T = Trace of Precipitation, MM = Missing Value Source: NWS Daily Summary

Daily Weather History Graph

Daily Weather History Graph

Search for Another Location

Airport or City:

Trip Planner

Search our weather history database for the weather conditions in past years. The results will help you decide how hot, cold, wet, or windy it might be!

Date:

Astronomy

Aug. 04, 2014 Rise Set
Actual Time 6:07 AM PDT 8:24 PM PDT
Civil Twilight 5:35 AM PDT 8:55 PM PDT
Nautical Twilight 4:57 AM PDT 9:33 PM PDT
Astronomical Twilight 4:14 AM PDT 10:15 PM PDT
Moon 2:41 PM PDT (8/4) 12:18 AM PDT (8/4)
Length of Visible Light 15h 19m
Length of Day
14h 17m
First Quarter, 58% of the Moon is Illuminated
Aug 4
First Quarter
Aug 10
Full
Aug 17
Last Quarter
Aug 25
New
Sep 2
First Quarter

Hourly Weather History & Observations

Time (PDT) Temp. Heat Index Dew Point Humidity Pressure Visibility Wind Dir Wind Speed Gust Speed Precip Events Conditions
12:53 AM 72.0 °F - 51.1 °F 48% 29.93 in 10.0 mi NNE 4.6 mph - N/A   Overcast
3:53 AM 64.9 °F - 44.1 °F 47% 29.94 in 10.0 mi Calm Calm - N/A   Clear
5:53 AM 62.1 °F - 46.0 °F 56% 29.95 in 10.0 mi Calm Calm - N/A   Clear
6:53 AM 62.1 °F - 46.0 °F 56% 29.96 in 10.0 mi NE 4.6 mph - N/A   Clear
7:53 AM 66.9 °F - 52.0 °F 59% 29.97 in 10.0 mi Calm Calm - N/A   Clear
8:53 AM 71.1 °F - 52.0 °F 51% 29.98 in 5.0 mi Calm Calm - N/A   Haze
9:53 AM 75.0 °F - 48.0 °F 38% 29.98 in 10.0 mi West 4.6 mph - N/A   Clear
10:53 AM - - - N/A% 30.02 in - North - - N/A   Unknown
11:53 AM - - - N/A% 30.01 in - North - - N/A   Unknown
12:53 PM 86.0 °F - 48.0 °F 27% 29.94 in 7.0 mi North - - N/A   Unknown
1:53 PM 88.0 °F - 48.0 °F 25% 29.91 in 6.0 mi ESE 5.8 mph - N/A   Haze
2:53 PM 91.9 °F - 48.0 °F 22% 29.89 in 6.0 mi North - - N/A   Haze
3:53 PM 91.9 °F - 46.9 °F 21% 29.88 in 5.0 mi Variable 4.6 mph - N/A   Haze
4:20 PM 91.9 °F - 50.0 °F 24% 29.92 in 1.8 mi West 8.1 mph - N/A   Haze
4:28 PM 91.9 °F - 50.0 °F 24% 29.92 in 1.2 mi West 11.5 mph - N/A   Haze
4:53 PM 91.9 °F - 51.1 °F 25% 29.86 in 1.2 mi WNW 10.4 mph - N/A   Haze
5:17 PM 91.0 °F 88.5 °F 53.1 °F 27% 29.91 in 1.2 mi WNW 12.7 mph - N/A   Haze
5:29 PM 90.0 °F 87.7 °F 54.0 °F 29% 29.91 in 1.2 mi NNW 8.1 mph - N/A   Haze
5:53 PM 90.0 °F 87.9 °F 55.0 °F 30% 29.87 in 1.2 mi North 8.1 mph - N/A   Haze
6:05 PM 89.1 °F - 48.0 °F 24% 29.92 in 2.5 mi SSW 5.8 mph - N/A   Haze
6:12 PM 89.1 °F - 48.0 °F 24% 29.92 in 5.0 mi SW 9.2 mph - N/A   Haze
6:53 PM 87.1 °F - 48.0 °F 26% 29.89 in 10.0 mi South 11.5 mph - N/A   Clear
7:53 PM 82.9 °F - 50.0 °F 32% 29.91 in 10.0 mi South 4.6 mph - N/A   Partly Cloudy
8:53 PM 82.0 °F 81.3 °F 54.0 °F 38% 29.95 in 10.0 mi North 18.4 mph - N/A   Partly Cloudy
9:16 PM 78.1 °F - 48.9 °F 36% 30.03 in 8.0 mi ENE 20.7 mph 38.0 mph N/A   Mostly Cloudy
9:53 PM 75.9 °F - 52.0 °F 43% 30.01 in 10.0 mi NNE 17.3 mph - N/A   Overcast
10:53 PM 72.0 °F - 55.0 °F 55% 30.07 in 7.0 mi Calm Calm - N/A   Overcast
11:53 PM 71.1 °F - 48.9 °F 45% 30.09 in 10.0 mi West 5.8 mph - N/A   Clear